TUMNANOSAT

Last updated on Tue Jan 31 2023 00:02:07 GMT+0000 (Coordinated Universal Time)

1 53464U 98067UD 23030.60253364 .06725357 12149-4 10869-2 0 9991 2 53464 51.6140 269.0175 0007377 240.9644 119.0641 16.32725495 26840

Satellite not in orbit